Other Public Products
Issued by NWS Charleston, SC

Current Version | Previous Version | Graphics & Text | Print | Product List | Glossary On
Versions: 1 2 3 4 5 6 7 8 9 10 11 12 13 14 15 16 17 18 19 20 21 22 23 24 25 26 27 28 29 30 31 32 33 34 35 36 37 38 39 40 41 42 43 44 45 46 47 48 49 50
295
FPUS82 KCHS 271312
OPUCHS

TEST...KCHS/KSAV Gateway Observations...TEST
National Weather Service Charleston SC
900 AM EDT TUE JUN 27 2017

NOTE: "fair" indicates few or no clouds below 12,000 feet with no
significant weather and/or obstructions to visibility.

SCZ050-WAZ558-NCZ071-TXZ119-213-PAZ071-DCZ001-FLZ074-172-MI076-
NYZ176-178-MAZ016-IL014-TNZ027-NJZ106-GAZ044-MD014-271400-

...Gateway Observations for Charleston International...

CITY           SKY/WX    TMP DP  RH WIND       PRES   REMARKS
Chas Airport   MOSUNNY   80  67  64 CALM      30.04R
Seattle        CLOUDY    55  49  80 SW8       30.06R
Charlotte      MOSUNNY   74  60  61 N6        30.10R
Dallas DFW     MOSUNNY   78  73  84 SE5       30.02S
Dallas Love    MOSUNNY   78  71  79 SE6       30.02F
Philladelphia  CLOUDY    66  61  84 S5        30.03R
Wash National  MOSUNNY   75  51  43 NW12      30.05R
Baltimore      PTSUNNY   72  53  51 NW3       30.03S
Miami          MOSUNNY   85  74  69 S8        30.01R HX  92
Detroit        MOSUNNY   60  48  64 NW10      30.07R
Newark         PTSUNNY   70  60  70 W3        30.00S
Laguardia      PTSUNNY   65  60  84 NE6       30.00F
J F K          MOSUNNY   69  62  78 NE3       30.01F
Boston Logan   PTSUNNY   67  59  75 SE5       30.00S
Ft. Lauderdale PTSUNNY   84  76  76 S5        30.00R HX  93
Chicago O`Hare SUNNY     62  47  57 W8        30.13R
Chicago Midway SUNNY     63  48  58 W8        30.14R
Houston Bush   PTSUNNY   77  72  84 E6        30.00R
Houston Hobby  PTSUNNY   81  75  82 NE6       29.99R
Nashville      PTSUNNY   68  54  60 CALM      30.16R
Atlanta        PTSUNNY   75  59  57 NW7       30.09S

$$

GAZ044-118-TXZ119-213-NCZ071-DCZ001-MDZ014-506-PAZ021-071-NJZ106-
NYZ176-178-MAZ106-OHZ011-021-055-MIZ076-KYZ091-ILZ014-INZ047-
MNZ060-ONZ431-271400-

...Gateway Observations for Savannah International...

CITY           SKY/WX    TMP DP  RH WIND       PRES   REMARKS
Savannah Arpt  CLOUDY    78  71  79 CALM      30.05R
Atlanta        PTSUNNY   75  59  57 NW7       30.09S
Charlotte      MOSUNNY   74  60  61 N6        30.10R
Dallas DFW     MOSUNNY   78  73  84 SE5       30.02S
Houston Bush   PTSUNNY   77  72  84 E6        30.00R
Wash National  MOSUNNY   75  51  43 NW12      30.05R
Wash Dulles    CLOUDY    72  50  45 N7        30.04S
Baltimore      PTSUNNY   72  53  51 NW3       30.03S
Philadelphia   CLOUDY    66  61  84 S5        30.03R
Newark         PTSUNNY   70  60  70 W3        30.00S
Laguardia      PTSUNNY   65  60  84 NE6       30.00F
J F K          MOSUNNY   69  62  78 NE3       30.01F
Boston         PTSUNNY   67  59  75 SE5       30.00S
Pittsburg      MOSUNNY   59  49  69 SW9       30.06R
Akron          MOSUNNY   57  48  72 W16       30.08R
Cleveland      PTSUNNY   56  51  84 SW9       30.08R
Cincinnati     SUNNY     62  52  69 NW5       30.15R
Columbus       SUNNY     59  52  78 NW6       30.13R
Detroit        MOSUNNY   60  48  64 NW10      30.07R
Chicago O`Hare SUNNY     62  47  57 W8        30.13R
Minneapolis    MOSUNNY   62  45  53 SW6       30.10S
Indianapolis   SUNNY     62  52  69 NW3       30.16R
Toronto Canada PTSUNNY   55  50  82 W7        29.94R

$$




USA.gov is the U.S. government's official web portal to all federal, state and local government web resources and services.